User: anonymous   Login
Location: 433rd Scouts Home(Lloyd Manor Park, Etobicoke )
(43.6722°N, 79.5542°W)
Time: 21:23:28
(UTC-04:00)
Language:

Envisat - Orbit

View from above orbital plane
View from above orbital plane
View from above satellite
View from above satellite

Ground track
Ground track

The orbit data is extracted from the following two-line orbital elements,

1 27386U 02009A   21290.56908991  .00000063  00000-0  34192-4 0  9990
2 27386  98.1597 278.4491 0001214  90.0999  19.9229 14.38047805 28626
Epoch (UTC): 17 October 2021 13:39:29
Eccentricity: 0.0001214
inclination: 98.1597°
perigee height: 764 km
apogee height: 766 km
right ascension of ascending node: 278.4491°
argument of perigee: 90.0999°
revolutions per day: 14.38047805
mean anomaly at epoch: 19.9229°
orbit number at epoch: 2862

The dashed part of the orbit path shows where the satellite is in the earth's shadow,  

DLR